timestamp,wind_dir_avg,wind_spd_avg,wind_spd_max_dir,wind_spd_gust,battery_voltage,lat,long
2022-11-06 00:04:00+00:00,229.0,9.7,234.0,10.94,12.41,47.59359,-54.27349
2022-11-06 00:14:00+00:00,227.0,9.97,228.0,10.96,12.41,47.59359,-54.27349
2022-11-06 00:24:00+00:00,233.0,9.33,239.0,10.97,12.41,47.59359,-54.27349
2022-11-06 00:34:00+00:00,236.0,9.56,241.0,10.79,12.41,47.59359,-54.27349
2022-11-06 00:44:00+00:00,237.0,8.48,240.0,10.85,12.41,47.59359,-54.27349
2022-11-06 00:54:00+00:00,237.0,8.8,244.0,10.82,12.41,47.59359,-54.27349
2022-11-06 01:04:00+00:00,235.0,8.51,239.0,10.7,12.41,47.59359,-54.27349
2022-11-06 01:14:01+00:00,238.0,8.27,243.0,10.37,12.41,47.59359,-54.27349
2022-11-06 01:24:01+00:00,238.0,8.01,247.0,9.87,12.41,47.59359,-54.27349
2022-11-06 01:34:01+00:00,228.0,5.86,233.0,7.35,12.41,47.59359,-54.27349
2022-11-06 01:44:01+00:00,232.0,5.59,241.0,8.37,12.41,47.59359,-54.27349
2022-11-06 01:54:01+00:00,234.0,5.99,238.0,7.26,12.41,47.59359,-54.27349
2022-11-06 02:04:01+00:00,229.0,5.88,238.0,8.99,12.41,47.59359,-54.27349
2022-11-06 02:14:01+00:00,226.0,5.46,228.0,6.01,12.41,47.59359,-54.27349
2022-11-06 02:24:01+00:00,227.0,5.5,216.0,6.55,12.41,47.59359,-54.27349
2022-11-06 02:34:01+00:00,223.0,4.93,223.0,5.41,12.41,47.59359,-54.27349
2022-11-06 02:44:01+00:00,235.0,4.67,232.0,5.28,12.41,47.59359,-54.27349
2022-11-06 02:54:01+00:00,232.0,5.3,232.0,6.04,12.41,47.59359,-54.27349
2022-11-06 03:04:01+00:00,231.0,5.15,229.0,5.46,12.41,47.59359,-54.27349
2022-11-06 03:14:00+00:00,235.0,5.43,238.0,6.16,12.41,47.59359,-54.27349
2022-11-06 03:24:00+00:00,237.0,5.77,239.0,6.51,12.41,47.59359,-54.27349
2022-11-06 03:34:00+00:00,234.0,5.75,235.0,6.36,12.41,47.59359,-54.27349
2022-11-06 03:44:00+00:00,231.0,5.71,228.0,6.16,12.41,47.59359,-54.27349
2022-11-06 03:54:00+00:00,228.0,6.05,229.0,6.45,12.41,47.59359,-54.27349
2022-11-06 04:04:00+00:00,229.0,6.35,238.0,8.54,12.41,47.59359,-54.27349
2022-11-06 04:14:00+00:00,228.0,5.22,223.0,6.02,12.41,47.59359,-54.27349
2022-11-06 04:24:00+00:00,214.0,2.36,215.0,3.69,12.41,47.59359,-54.27349
2022-11-06 04:34:00+00:00,233.0,3.35,235.0,3.92,12.41,47.59359,-54.27349
2022-11-06 04:44:00+00:00,229.0,3.89,223.0,4.83,12.41,47.59359,-54.27349
2022-11-06 04:54:00+00:00,225.0,3.46,231.0,4.22,12.41,47.59359,-54.27349
2022-11-06 05:04:00+00:00,231.0,2.94,232.0,3.23,12.41,47.59359,-54.27349
2022-11-06 05:14:00+00:00,218.0,3.24,217.0,3.82,12.33,47.59359,-54.27349
2022-11-06 05:24:00+00:00,212.0,3.07,218.0,3.38,12.33,47.59359,-54.27349
2022-11-06 05:34:00+00:00,219.0,3.76,219.0,4.01,12.33,47.59359,-54.27349
2022-11-06 05:44:00+00:00,223.0,5.09,220.0,5.62,12.33,47.59359,-54.27349
2022-11-06 05:54:00+00:00,229.0,5.21,225.0,5.76,12.33,47.59359,-54.27349
2022-11-06 06:04:00+00:00,217.0,4.88,218.0,5.28,12.33,47.59359,-54.27349
2022-11-06 06:14:00+00:00,217.0,4.92,220.0,5.17,12.33,47.59359,-54.27349
2022-11-06 06:24:00+00:00,221.0,4.47,226.0,4.99,12.33,47.59359,-54.27349
2022-11-06 06:34:00+00:00,235.0,3.92,231.0,4.44,12.33,47.59359,-54.27349
2022-11-06 06:44:00+00:00,245.0,3.93,250.0,4.32,12.33,47.59359,-54.27349
2022-11-06 06:54:00+00:00,242.0,3.74,238.0,4.25,12.33,47.59359,-54.27349
2022-11-06 07:04:00+00:00,254.0,3.56,256.0,3.95,12.33,47.59359,-54.27349
2022-11-06 07:14:00+00:00,256.0,3.54,264.0,4.02,12.33,47.59359,-54.27349
2022-11-06 07:24:00+00:00,251.0,3.42,250.0,3.67,12.33,47.59359,-54.27349
2022-11-06 07:34:00+00:00,286.0,2.74,282.0,2.95,12.33,47.59359,-54.27349
2022-11-06 07:44:00+00:00,298.0,2.51,299.0,2.68,12.33,47.59359,-54.27349
2022-11-06 07:54:00+00:00,300.0,1.51,310.0,1.82,12.33,47.59359,-54.27349
2022-11-06 08:04:00+00:00,226.0,0.4,239.0,0.73,12.33,47.59359,-54.27349
2022-11-06 08:14:00+00:00,276.0,2.71,277.0,2.93,12.25,47.59359,-54.27349
2022-11-06 08:24:00+00:00,282.0,2.15,288.0,2.31,12.25,47.59359,-54.27349
2022-11-06 08:34:00+00:00,312.0,1.67,308.0,1.89,12.25,47.59359,-54.27349
2022-11-06 08:44:00+00:00,337.0,2.36,341.0,2.72,12.25,47.59359,-54.27349
2022-11-06 08:54:00+00:00,314.0,3.19,316.0,3.39,12.25,47.59359,-54.27349
2022-11-06 09:04:00+00:00,303.0,2.74,305.0,2.92,12.25,47.59359,-54.27349
2022-11-06 09:14:00+00:00,313.0,2.65,314.0,2.85,12.25,47.59359,-54.27349
2022-11-06 09:24:00+00:00,300.0,1.13,293.0,1.37,12.25,47.59359,-54.27349
2022-11-06 09:34:00+00:00,304.0,2.03,298.0,2.62,12.25,47.59359,-54.27349
2022-11-06 09:44:00+00:00,286.0,1.8,284.0,2.02,12.25,47.59359,-54.27349
2022-11-06 09:54:00+00:00,26.0,2.09,28.0,2.27,12.25,47.59359,-54.27349
2022-11-06 10:04:00+00:00,323.0,1.66,317.0,1.91,12.25,47.59359,-54.27349
2022-11-06 10:14:00+00:00,323.0,1.86,318.0,2.15,12.25,47.59359,-54.27349
2022-11-06 10:24:00+00:00,16.0,2.57,18.0,3.22,12.25,47.59359,-54.27349
2022-11-06 10:34:00+00:00,36.0,6.93,36.0,7.5,12.25,47.59359,-54.27349
2022-11-06 10:44:00+00:00,41.0,5.86,41.0,6.86,12.25,47.59359,-54.27349
2022-11-06 10:54:00+00:00,64.0,8.18,60.0,9.41,12.25,47.59359,-54.27349
2022-11-06 11:04:00+00:00,64.0,7.14,67.0,7.76,12.25,47.59359,-54.27349
2022-11-06 11:14:00+00:00,66.0,6.62,69.0,7.43,12.17,47.59359,-54.27349
2022-11-06 11:24:00+00:00,71.0,5.97,58.0,6.78,12.17,47.59359,-54.27349
2022-11-06 11:34:00+00:00,64.0,5.82,59.0,6.88,12.17,47.59359,-54.27349
2022-11-06 11:44:00+00:00,55.0,6.45,55.0,7.15,12.17,47.59359,-54.27349
2022-11-06 11:54:00+00:00,66.0,6.35,62.0,7.1,12.17,47.59359,-54.27349
2022-11-06 12:04:00+00:00,69.0,6.88,73.0,7.84,12.17,47.59359,-54.27349
2022-11-06 12:14:00+00:00,68.0,6.7,75.0,7.87,12.33,47.59359,-54.27349
2022-11-06 12:24:00+00:00,66.0,6.58,62.0,7.55,12.33,47.59359,-54.27349
2022-11-06 12:34:00+00:00,67.0,6.58,73.0,7.48,12.33,47.59359,-54.27349
2022-11-06 12:44:00+00:00,66.0,6.7,62.0,7.75,12.33,47.59359,-54.27349
2022-11-06 12:54:00+00:00,65.0,6.04,63.0,7.59,12.33,47.59359,-54.27349
2022-11-06 13:04:00+00:00,62.0,5.78,60.0,6.81,12.33,47.59359,-54.27349
2022-11-06 13:14:00+00:00,59.0,5.15,53.0,6.0,12.57,47.59359,-54.27349
2022-11-06 13:24:00+00:00,58.0,5.37,55.0,6.17,12.57,47.59359,-54.27349
2022-11-06 13:34:00+00:00,53.0,5.03,51.0,5.72,12.57,47.59359,-54.27349
2022-11-06 13:44:00+00:00,66.0,4.75,61.0,5.18,12.57,47.59359,-54.27349
2022-11-06 13:54:00+00:00,70.0,4.43,73.0,7.69,12.57,47.59359,-54.27349
2022-11-06 14:04:00+00:00,67.0,2.91,84.0,3.68,12.57,47.59359,-54.27349
2022-11-06 14:14:01+00:00,79.0,2.66,100.0,3.91,12.73,47.59359,-54.27349
2022-11-06 14:24:01+00:00,93.0,3.02,127.0,4.65,12.73,47.59359,-54.27349
2022-11-06 14:34:01+00:00,76.0,2.2,64.0,4.14,12.73,47.59359,-54.27349
2022-11-06 14:44:01+00:00,69.0,2.26,63.0,3.31,12.73,47.59359,-54.27349
2022-11-06 14:54:01+00:00,94.0,1.72,93.0,2.69,12.73,47.59359,-54.27349
2022-11-06 15:04:01+00:00,87.0,1.43,122.0,2.53,12.73,47.59359,-54.27349
2022-11-06 15:14:00+00:00,126.0,4.3,127.0,4.79,13.05,47.59359,-54.27349
2022-11-06 15:24:00+00:00,124.0,3.38,123.0,3.87,13.05,47.59359,-54.27349
2022-11-06 15:34:00+00:00,143.0,3.45,147.0,3.86,13.05,47.59359,-54.27349
2022-11-06 15:44:00+00:00,137.0,3.05,137.0,3.85,13.05,47.59359,-54.27349
2022-11-06 15:54:00+00:00,122.0,2.73,118.0,3.12,13.05,47.59359,-54.27349
2022-11-06 16:04:00+00:00,131.0,2.31,122.0,2.82,13.05,47.59359,-54.27349
2022-11-06 16:14:00+00:00,135.0,2.53,125.0,3.07,13.05,47.59359,-54.27349
2022-11-06 16:24:00+00:00,150.0,1.58,149.0,1.91,13.05,47.59359,-54.27349
2022-11-06 16:34:00+00:00,176.0,2.56,193.0,3.09,13.05,47.59359,-54.27349
2022-11-06 16:44:00+00:00,158.0,3.05,151.0,3.37,13.05,47.59359,-54.27349
2022-11-06 16:54:00+00:00,178.0,3.22,180.0,3.69,13.05,47.59359,-54.27349
2022-11-06 17:04:00+00:00,172.0,3.73,172.0,4.12,13.05,47.59359,-54.27349
2022-11-06 17:14:01+00:00,172.0,4.06,176.0,4.64,13.05,47.59359,-54.27349
2022-11-06 17:24:01+00:00,175.0,4.29,180.0,4.74,13.05,47.59359,-54.27349
2022-11-06 17:34:01+00:00,190.0,4.61,194.0,5.21,13.05,47.59359,-54.27349
2022-11-06 17:44:01+00:00,199.0,3.24,194.0,4.23,13.05,47.59359,-54.27349
2022-11-06 17:54:01+00:00,195.0,2.58,195.0,2.93,13.05,47.59359,-54.27349
2022-11-06 18:04:01+00:00,178.0,3.18,175.0,3.54,13.05,47.59359,-54.27349
2022-11-06 18:14:01+00:00,204.0,4.47,202.0,5.28,12.89,47.59359,-54.27349
2022-11-06 18:24:01+00:00,203.0,6.2,205.0,6.89,12.89,47.59359,-54.27349
2022-11-06 18:34:01+00:00,218.0,5.92,218.0,6.56,12.89,47.59359,-54.27349
2022-11-06 18:44:01+00:00,216.0,5.2,218.0,5.81,12.89,47.59359,-54.27349
2022-11-06 18:54:01+00:00,215.0,6.05,216.0,6.75,12.89,47.59359,-54.27349
2022-11-06 19:04:01+00:00,211.0,7.48,209.0,7.96,12.89,47.59359,-54.27349
2022-11-06 19:14:00+00:00,215.0,6.69,204.0,8.47,12.65,47.59359,-54.27349
2022-11-06 19:24:00+00:00,207.0,5.82,210.0,6.29,12.65,47.59359,-54.27349
2022-11-06 19:34:00+00:00,205.0,5.37,203.0,5.92,12.65,47.59359,-54.27349
2022-11-06 19:44:00+00:00,212.0,5.33,220.0,6.2,12.65,47.59359,-54.27349
2022-11-06 19:54:00+00:00,216.0,6.49,214.0,6.96,12.65,47.59359,-54.27349
2022-11-06 20:04:00+00:00,221.0,6.06,220.0,6.71,12.65,47.59359,-54.27349
2022-11-06 20:14:00+00:00,214.0,7.29,211.0,8.27,12.49,47.59359,-54.27349
2022-11-06 20:24:00+00:00,213.0,6.88,206.0,8.48,12.49,47.59359,-54.27349
2022-11-06 20:34:00+00:00,217.0,7.59,217.0,8.64,12.49,47.59359,-54.27349
2022-11-06 20:44:00+00:00,213.0,8.64,217.0,9.56,12.49,47.59359,-54.27349
2022-11-06 20:54:00+00:00,214.0,8.61,213.0,10.0,12.49,47.59359,-54.27349
2022-11-06 21:04:00+00:00,214.0,9.95,216.0,11.18,12.49,47.59359,-54.27349
2022-11-06 21:14:01+00:00,207.0,8.98,201.0,10.0,12.41,47.59359,-54.27349
2022-11-06 21:24:01+00:00,208.0,10.46,211.0,11.31,12.41,47.59359,-54.27349
2022-11-06 21:34:01+00:00,208.0,10.59,215.0,11.79,12.41,47.59359,-54.27349
2022-11-06 21:44:01+00:00,212.0,10.07,216.0,11.82,12.41,47.59359,-54.27349
2022-11-06 21:54:01+00:00,211.0,10.26,214.0,11.47,12.41,47.59359,-54.27349
2022-11-06 22:04:01+00:00,216.0,9.8,222.0,11.02,12.41,47.59359,-54.27349
2022-11-06 22:14:00+00:00,211.0,9.33,220.0,10.37,12.41,47.59359,-54.27349
2022-11-06 22:24:00+00:00,211.0,9.54,214.0,11.07,12.41,47.59359,-54.27349
2022-11-06 22:34:00+00:00,215.0,9.67,223.0,11.32,12.41,47.59359,-54.27349
2022-11-06 22:44:00+00:00,221.0,8.78,225.0,10.79,12.41,47.59359,-54.27349
2022-11-06 22:54:00+00:00,224.0,8.73,224.0,10.64,12.41,47.59359,-54.27349
2022-11-06 23:04:00+00:00,229.0,8.01,236.0,9.51,12.41,47.59359,-54.27349
2022-11-06 23:14:00+00:00,223.0,8.89,228.0,10.6,12.25,47.59359,-54.27349
2022-11-06 23:24:00+00:00,218.0,8.93,237.0,11.08,12.25,47.59359,-54.27349
2022-11-06 23:34:00+00:00,216.0,9.18,227.0,11.2,12.25,47.59359,-54.27349
2022-11-06 23:44:00+00:00,221.0,10.29,227.0,11.95,12.25,47.59359,-54.27349
2022-11-06 23:54:00+00:00,214.0,8.81,225.0,10.68,12.25,47.59359,-54.27349
